DW4466 Weather Reports


Display with metric or nautical units.
time (UTC)temp
F
wind
direction
speed
MPH
gust
MPH
rain 1hr
in
rain 24hr
in
rain mn
in
humidity
%
barometer
mb
20260905034547 73 40 1.0 3.0 0.00 0.21 0.14 90 1011.4
20260905034013 72 23 0.0 3.0 0.00 0.21 0.14 90 1011.3
20260905033547 72 23 0.0 3.0 0.00 0.21 0.14 91 1011.2
20260905033022 72 25 2.0 6.0 0.00 0.56 0.14 91 1011.3
20260905032550 72 41 3.0 6.0 0.00 0.56 0.14 92 1011.4
20260905032021 72 41 2.0 6.0 0.00 0.56 0.14 93 1011.3
20260905031559 72 44 2.0 3.0 0.00 0.56 0.14 93 1011.3
20260905031034 72 46 1.0 2.0 0.00 0.56 0.14 92 1011.3
20260905030507 72 29 1.0 2.0 0.00 0.56 0.14 92 1011.3
20260905030041 73 29 0.0 2.0 0.00 0.56 0.14 92 1011.3
20260905025513 73 330 0.0 4.0 0.00 0.56 0.14 92 1011.3
20260905025027 73 330 0.0 4.0 0.00 0.56 0.14 91 1011.3
20260905024507 73 55 0.0 3.0 0.00 0.56 0.14 91 1011.3
20260905024047 73 55 0.0 4.0 0.00 0.56 0.14 91 1011.2
20260905023515 73 34 1.0 4.0 0.00 0.56 0.14 91 1011.2
20260905023051 73 55 0.0 2.0 0.00 0.56 0.14 91 1011.2
20260905022523 73 68 0.0 4.0 0.00 0.56 0.14 90 1011.0
20260905022053 73 68 0.0 4.0 0.00 0.56 0.14 91 1011.0
20260905021524 72 306 0.0 2.0 0.00 0.56 0.14 92 1011.0
20260905021003 72 182 0.0 2.0 0.00 0.56 0.14 92 1010.9
20260905020541 73 182 0.0 2.0 0.00 0.56 0.14 92 1011.0
20260905020014 73 236 0.0 1.0 0.00 0.56 0.14 91 1011.0
20260905015549 73 346 0.0 1.0 0.00 0.56 0.14 91 1010.9
20260905015010 73 346 0.0 3.0 0.00 0.56 0.14 91 1010.7
20260905014521 73 346 0.0 3.0 0.00 0.56 0.14 90 1010.6
20260905014059 73 327 0.0 2.0 0.00 0.56 0.14 91 1010.6
20260905013533 74 327 0.0 2.0 0.00 0.56 0.14 90 1010.5
20260905013005 74 87 0.0 2.0 0.00 0.56 0.14 88 1010.3
20260905012525 74 87 0.0 2.0 0.00 0.56 0.14 88 1010.2
20260905012039 74 40 0.0 1.0 0.00 0.56 0.14 87 1010.3
20260905011511 75 40 0.0 4.0 0.00 0.56 0.14 87 1010.3
20260905011046 74 40 0.0 4.0 0.00 0.56 0.14 88 1010.1
20260905010512 74 69 1.0 6.0 0.00 0.56 0.14 89 1010.1
20260905010046 73 55 2.0 6.0 0.00 0.56 0.14 91 1010.1
20260905005523 72 57 4.0 7.0 0.00 0.56 0.14 94 1010.1
20260905005051 72 27 2.0 5.0 0.00 0.56 0.14 96 1010.0
20260905004523 72 64 1.0 3.0 0.00 0.56 0.14 97 1010.0
20260905004059 72 7 0.0 2.0 0.00 0.56 0.14 97 1009.9
20260905003533 72 39 0.0 1.0 0.00 0.56 0.14 97 1009.9
20260905003003 72 333 0.0 2.0 0.00 0.56 0.14 97 1009.9
20260905002530 72 333 0.0 4.0 0.00 0.56 0.14 97 1010.0
20260905002005 72 102 1.0 4.0 0.00 0.56 0.14 96 1009.9
20260905001537 72 114 0.0 0.0 0.00 0.56 0.14 96 1010.0
20260905001009 72 166 0.0 1.0 0.00 0.56 0.14 96 1010.0
20260905000543 72 166 0.0 1.0 0.00 0.56 0.14 96 1009.9
20260905000059 72 229 0.0 0.0 0.00 0.56 0.14 96 1009.9
20260905000002 72 229 0.0 0.0 0.00 0.56 0.14 96 1009.9
20260904235531 72 229 0.0 0.0 0.00 0.56 0.14 96 1009.9
20260904235007 72 229 0.0 0.0 0.00 0.56 0.14 96 1010.0
20260904234546 73 229 0.0 2.0 0.00 0.56 0.14 96 1010.0
20260904234013 73 229 0.0 1.0 0.00 0.56 0.14 96 1010.1
20260904233545 73 218 0.0 3.0 0.00 0.56 0.14 96 1010.3
20260904233017 73 218 1.0 3.0 0.00 0.56 0.14 95 1010.2
20260904232549 73 215 1.0 3.0 0.00 0.56 0.14 95 1010.1
20260904232026 73 283 1.0 3.0 0.00 0.56 0.14 95 1010.1
20260904231556 73 330 0.0 0.0 0.00 0.56 0.14 95 1010.3
20260904231031 73 330 0.0 1.0 0.00 0.56 0.14 95 1010.3
20260904230601 73 330 0.0 2.0 0.00 0.56 0.14 95 1010.4
20260904230033 73 330 0.0 1.0 0.00 0.56 0.14 95 1010.3
20260904225505 73 2 0.0 2.0 0.00 0.56 0.14 95 1010.4
20260904225038 73 2 1.0 2.0 0.00 0.56 0.14 94 1010.5
20260904224521 73 2 1.0 3.0 0.00 0.56 0.14 94 1010.5
20260904224050 73 341 1.0 3.0 0.00 0.56 0.14 94 1010.4
20260904223521 73 23 1.0 3.0 0.00 0.56 0.14 94 1010.4
20260904223043 73 300 1.0 3.0 0.00 0.56 0.14 94 1010.3
20260904222510 73 33 2.0 3.0 0.00 0.56 0.14 94 1010.4
20260904222042 73 9 0.0 2.0 0.00 0.56 0.14 94 1010.3
20260904221514 73 9 1.0 3.0 0.00 0.56 0.14 94 1010.5
20260904221050 73 9 1.0 3.0 0.00 0.56 0.14 94 1010.4
20260904220523 73 296 0.0 3.0 0.00 0.56 0.14 94 1010.4
20260904220054 73 312 1.0 4.0 0.00 0.56 0.14 93 1010.5
20260904215528 73 342 1.0 5.0 0.00 0.56 0.14 93 1010.8
20260904215004 73 1 2.0 5.0 0.00 0.56 0.14 93 1011.0
20260904214546 73 15 1.0 4.0 0.00 0.56 0.14 93 1010.9
20260904214012 73 301 0.0 4.0 0.00 0.56 0.14 93 1010.8
20260904213544 73 338 1.0 4.0 0.00 0.56 0.14 92 1010.9
20260904213017 73 18 0.0 3.0 0.00 0.56 0.14 92 1010.7
20260904212551 73 7 0.0 2.0 0.00 0.56 0.14 93 1010.7
20260904212025 73 7 0.0 4.0 0.00 0.56 0.14 93 1011.0
20260904211604 73 290 0.0 4.0 0.00 0.56 0.14 93 1011.1
20260904211032 73 21 1.0 4.0 0.00 0.56 0.14 93 1011.1
20260904210546 73 25 1.0 3.0 0.02 0.56 0.14 92 1011.2
20260904210023 73 13 0.0 3.0 0.14 0.56 0.14 93 1011.3
20260904205553 73 296 1.0 3.0 0.14 0.56 0.14 94 1011.3
20260904205020 74 308 1.0 6.0 0.14 0.56 0.14 93 1011.3
20260904204550 74 223 1.0 6.0 0.14 0.56 0.14 94 1011.5
20260904204009 74 17 0.0 9.0 0.14 0.56 0.14 93 1011.6
20260904203542 74 318 2.0 9.0 0.14 0.56 0.14 92 1011.5
20260904203014 75 30 3.0 7.0 0.14 0.56 0.14 92 1011.5
20260904202548 75 25 1.0 4.0 0.14 0.56 0.14 91 1011.5
20260904202024 76 286 0.0 9.0 0.14 0.56 0.14 90 1011.4
20260904201540 77 27 5.0 11.0 0.14 0.56 0.14 88 1011.4
20260904201014 78 234 3.0 19.0 0.14 0.56 0.14 84 1010.9
20260904200546 81 55 9.0 19.0 0.10 0.52 0.11 79 1011.8
20260904200028 85 339 0.0 4.0 0.00 0.42 0.00 77 1011.3
20260904195554 85 229 0.0 2.0 0.00 0.42 0.00 75 1010.7
20260904195012 86 128 0.0 3.0 0.00 0.42 0.00 73 1010.4
20260904194528 86 167 0.0 3.0 0.00 0.42 0.00 74 1010.2
20260904194004 86 117 0.0 2.0 0.00 0.42 0.00 72 1010.4
20260904193538 86 138 0.0 4.0 0.00 0.42 0.00 71 1010.1
20260904193015 87 155 1.0 4.0 0.00 0.42 0.00 69 1010.2
20260904192525 87 148 0.0 0.0 0.00 0.42 0.00 70 1010.4
20260904192004 87 94 0.0 0.0 0.00 0.42 0.00 70 1010.4
20260904191536 87 67 0.0 5.0 0.00 0.42 0.00 68 1010.3
20260904191008 88 67 1.0 6.0 0.00 0.42 0.00 67 1010.1
20260904190534 88 66 2.0 6.0 0.00 0.42 0.00 67 1010.3
20260904190013 88 104 0.0 5.0 0.00 0.42 0.00 68 1010.4
20260904185545 88 117 2.0 4.0 0.00 0.42 0.00 68 1010.4
20260904185020 88 313 0.0 9.0 0.00 0.42 0.00 68 1010.4
20260904184602 87 331 3.0 9.0 0.00 0.42 0.00 67 1010.5
20260904184029 88 22 4.0 8.0 0.00 0.42 0.00 68 1010.7
20260904183543 88 24 0.0 5.0 0.00 0.42 0.00 72 1010.9
20260904183013 87 38 1.0 3.0 0.00 0.42 0.00 71 1011.1
20260904182546 87 57 0.0 3.0 0.00 0.42 0.00 69 1011.3
20260904182015 87 42 1.0 4.0 0.00 0.42 0.00 71 1011.2
20260904181550 87 342 1.0 5.0 0.00 0.42 0.00 71 1011.4
20260904181032 87 93 2.0 7.0 0.00 0.42 0.00 70 1011.6
20260904180601 87 75 0.0 7.0 0.00 0.42 0.00 69 1011.5
20260904180016 86 18 0.0 9.0 0.00 0.42 0.00 72 1011.7
20260904175550 86 45 1.0 9.0 0.00 0.42 0.00 72 1011.7
20260904175023 86 11 4.0 7.0 0.00 0.42 0.00 71 1011.7
20260904174504 86 55 3.0 5.0 0.00 0.42 0.00 69 1011.7
20260904174038 86 272 0.0 5.0 0.00 0.42 0.00 73 1011.7
20260904173509 85 340 0.0 7.0 0.00 0.42 0.00 70 1011.9
20260904173030 85 273 1.0 7.0 0.00 0.42 0.00 70 1011.9
20260904172507 85 75 1.0 6.0 0.00 0.42 0.00 72 1011.9
20260904172037 84 29 3.0 10.0 0.00 0.42 0.00 71 1011.9
20260904171512 84 82 6.0 10.0 0.00 0.42 0.00 72 1012.0
20260904171043 84 70 5.0 10.0 0.00 0.42 0.00 72 1012.1
20260904170516 84 40 6.0 10.0 0.00 0.42 0.00 71 1012.2
20260904170034 84 13 5.0 10.0 0.00 0.42 0.00 72 1012.2
20260904165510 84 60 1.0 10.0 0.00 0.42 0.00 73 1012.1
20260904165041 83 45 5.0 10.0 0.00 0.42 0.00 72 1012.3
20260904164508 83 90 4.0 9.0 0.00 0.42 0.00 72 1012.3
20260904164043 83 67 3.0 9.0 0.00 0.42 0.00 73 1012.4
20260904163513 83 39 6.0 10.0 0.00 0.42 0.00 71 1012.6
20260904163058 83 31 4.0 10.0 0.00 0.42 0.00 74 1012.6
20260904162527 83 103 4.0 9.0 0.00 0.42 0.00 72 1012.6
20260904162055 83 44 6.0 9.0 0.00 0.42 0.00 73 1012.6
20260904161531 83 78 2.0 6.0 0.00 0.42 0.00 72 1012.7
20260904161044 83 49 1.0 10.0 0.00 0.42 0.00 74 1012.6
20260904160516 83 72 7.0 10.0 0.00 0.42 0.00 71 1012.6
20260904160048 83 61 1.0 9.0 0.00 0.42 0.00 74 1012.6
20260904155519 82 124 5.0 9.0 0.00 0.42 0.00 73 1012.6
20260904155049 82 128 2.0 7.0 0.00 0.42 0.00 74 1012.6
20260904154525 82 79 4.0 7.0 0.00 0.42 0.00 73 1012.7
20260904154039 82 107 3.0 8.0 0.00 0.42 0.00 75 1012.7
20260904153514 82 106 2.0 10.0 0.00 0.42 0.00 73 1012.7
20260904153055 82 103 6.0 9.0 0.00 0.42 0.00 73 1012.7
20260904152514 82 51 2.0 8.0 0.00 0.42 0.00 77 1012.7
20260904152050 81 156 5.0 10.0 0.00 0.42 0.00 74 1012.9
20260904151523 81 67 6.0 10.0 0.00 0.42 0.00 73 1012.8
20260904151051 81 43 5.0 10.0 0.00 0.42 0.00 73 1012.8
20260904150525 81 88 4.0 10.0 0.00 0.42 0.00 74 1012.8
20260904150059 81 138 6.0 10.0 0.00 0.42 0.00 73 1012.9
20260904150002 81 100 6.0 10.0 0.00 0.42 0.00 74 1012.9
20260904145533 81 27 4.0 9.0 0.00 0.42 0.00 75 1012.9
20260904145003 81 59 4.0 10.0 0.00 0.42 0.00 74 1013.1
20260904144534 81 28 4.0 9.0 0.00 0.42 0.00 75 1013.1
20260904144007 81 92 4.0 9.0 0.00 0.42 0.00 73 1013.1
20260904143539 81 68 5.0 9.0 0.00 0.42 0.00 73 1013.1
20260904143012 80 102 3.0 9.0 0.00 0.42 0.00 74 1013.2
20260904142540 80 79 4.0 10.0 0.00 0.42 0.00 75 1013.2
20260904142013 80 48 7.0 10.0 0.00 0.42 0.00 76 1013.1
20260904141529 80 31 5.0 9.0 0.00 0.42 0.00 76 1013.1
20260904141003 80 77 2.0 9.0 0.00 0.42 0.00 75 1013.1
20260904140537 80 86 4.0 11.0 0.00 0.42 0.00 75 1013.1
20260904140009 79 61 4.0 11.0 0.00 0.42 0.00 75 1013.1
20260904135543 79 48 7.0 11.0 0.00 0.42 0.00 77 1013.2
20260904135058 79 58 3.0 8.0 0.00 0.42 0.00 79 1013.2
20260904134533 79 92 4.0 8.0 0.00 0.42 0.00 78 1013.1
20260904134005 79 47 3.0 6.0 0.00 0.42 0.00 82 1013.2
20260904133537 78 90 2.0 6.0 0.00 0.42 0.00 80 1013.1
20260904133053 78 61 2.0 6.0 0.00 0.42 0.00 80 1013.1
20260904132513 78 106 0.0 3.0 0.00 0.42 0.00 83 1013.0
20260904132041 77 18 0.0 5.0 0.00 0.42 0.00 81 1013.0
20260904131507 77 112 3.0 6.0 0.00 0.42 0.00 82 1013.0
20260904131039 77 52 2.0 6.0 0.00 0.42 0.00 82 1012.9
20260904130551 76 121 3.0 6.0 0.00 0.42 0.00 82 1013.0
20260904130023 76 106 2.0 5.0 0.00 0.42 0.00 84 1013.1
20260904125555 76 70 3.0 8.0 0.00 0.42 0.00 85 1013.1
20260904125032 76 55 4.0 9.0 0.00 0.42 0.00 85 1013.2
20260904124503 75 27 5.0 9.0 0.00 0.42 0.00 87 1013.2
20260904124032 75 62 3.0 7.0 0.00 0.42 0.00 89 1013.1
20260904123509 74 79 2.0 8.0 0.00 0.42 0.00 89 1013.1
20260904123101 74 21 4.0 8.0 0.00 0.42 0.00 89 1013.2
20260904122515 74 69 2.0 4.0 0.00 0.42 0.00 90 1013.3
20260904122045 73 52 2.0 4.0 0.00 0.42 0.00 90 1013.3
20260904121518 73 75 1.0 3.0 0.00 0.42 0.00 90 1013.2
20260904121048 72 61 0.0 3.0 0.00 0.42 0.00 92 1012.8
20260904120516 72 40 0.0 2.0 0.00 0.42 0.00 94 1012.9
20260904120050 71 128 0.0 2.0 0.00 0.42 0.00 93 1013.0
20260904115522 71 128 0.0 2.0 0.00 0.42 0.00 94 1013.0
20260904115054 70 128 0.0 2.0 0.00 0.42 0.00 96 1013.0
20260904114540 70 145 1.0 2.0 0.00 0.42 0.00 96 1012.9
20260904114044 70 18 0.0 2.0 0.00 0.42 0.00 96 1012.8
20260904113517 70 18 0.0 0.0 0.00 0.42 0.00 96 1012.9
20260904113053 70 234 0.0 0.0 0.00 0.43 0.00 96 1012.9
20260904112533 70 234 0.0 0.0 0.00 0.43 0.00 95 1012.9
20260904112008 69 234 0.0 0.0 0.00 0.43 0.00 95 1012.9
20260904111550 70 234 0.0 0.0 0.00 0.43 0.00 95 1012.9
20260904111055 69 234 0.0 0.0 0.00 0.43 0.00 95 1012.9
20260904110529 70 234 0.0 1.0 0.00 0.43 0.00 94 1012.8
20260904110015 70 77 0.0 4.0 0.00 0.43 0.00 94 1012.8
20260904105539 70 86 0.0 5.0 0.00 0.43 0.00 94 1012.7
20260904105009 69 104 2.0 6.0 0.00 0.43 0.00 95 1012.8
20260904104543 69 81 2.0 9.0 0.00 0.43 0.00 95 1012.8
20260904104013 69 109 5.0 9.0 0.00 0.43 0.00 96 1012.7
20260904103546 69 90 4.0 8.0 0.00 0.43 0.00 96 1012.6
20260904103021 69 71 1.0 5.0 0.00 0.43 0.00 97 1012.2
20260904102554 69 71 2.0 8.0 0.00 0.43 0.00 97 1012.2
20260904102028 69 75 5.0 10.0 0.00 0.43 0.00 98 1012.3
20260904101549 69 81 4.0 10.0 0.00 0.43 0.00 98 1012.4
20260904101016 69 85 4.0 6.0 0.00 0.43 0.00 98 1012.3
20260904100552 69 128 3.0 5.0 0.00 0.43 0.00 98 1012.1
20260904100019 69 96 2.0 4.0 0.00 0.43 0.00 98 1012.0
20260904095555 69 207 1.0 3.0 0.00 0.43 0.00 98 1011.9
20260904095014 69 184 0.0 4.0 0.00 0.43 0.00 98 1011.8
20260904094548 69 155 2.0 4.0 0.00 0.43 0.00 98 1011.8
20260904094018 69 138 1.0 4.0 0.00 0.43 0.00 98 1011.9
20260904093552 69 128 2.0 4.0 0.00 0.43 0.00 98 1011.8
20260904093027 69 138 0.0 3.0 0.00 0.43 0.00 98 1011.6
20260904092600 69 138 1.0 4.0 0.00 0.43 0.00 98 1011.6
20260904092507 69 138 1.0 4.0 0.00 0.43 0.00 98 1011.7
20260904092034 69 150 2.0 4.0 0.00 0.43 0.00 98 1011.7
20260904091553 69 159 0.0 1.0 0.00 0.43 0.00 98 1011.5
20260904091024 69 159 0.0 2.0 0.00 0.43 0.00 98 1011.4
20260904090558 69 159 0.0 2.0 0.00 0.43 0.00 98 1011.4
20260904090036 69 159 1.0 5.0 0.00 0.43 0.00 98 1011.3
20260904085508 68 237 1.0 5.0 0.00 0.43 0.00 98 1011.1
20260904085042 68 280 2.0 4.0 0.00 0.43 0.00 98 1011.1
20260904084521 68 203 0.0 0.0 0.00 0.43 0.00 98 1011.4
20260904084050 68 138 0.0 0.0 0.00 0.43 0.00 98 1011.4
20260904083532 68 182 0.0 0.0 0.00 0.43 0.00 98 1011.4
20260904083004 68 182 0.0 0.0 0.00 0.43 0.00 98 1011.5
20260904082538 68 102 0.0 0.0 0.00 0.43 0.00 98 1011.4
20260904082010 68 102 0.0 0.0 0.00 0.43 0.00 98 1011.5
20260904081542 68 102 0.0 0.0 0.00 0.43 0.00 98 1011.6
20260904081016 69 102 0.0 0.0 0.00 0.43 0.00 98 1011.7
20260904080550 69 229 0.0 0.0 0.00 0.43 0.00 98 1011.6
20260904080006 68 254 0.0 0.0 0.00 0.43 0.00 98 1011.6
20260904075520 69 321 0.0 1.0 0.00 0.43 0.00 97 1011.7
20260904075053 69 321 0.0 4.0 0.00 0.43 0.00 97 1011.6
20260904074531 68 329 2.0 4.0 0.00 0.43 0.00 97 1011.6
20260904074100 69 231 0.0 4.0 0.00 0.43 0.00 97 1011.6
20260904074004 69 242 0.0 4.0 0.00 0.43 0.00 97 1011.4
20260904073538 69 219 2.0 4.0 0.00 0.43 0.00 97 1011.2
20260904073007 69 261 0.0 4.0 0.00 0.43 0.00 97 1011.3
20260904072521 69 223 1.0 3.0 0.00 0.43 0.00 98 1011.3
20260904072056 69 210 1.0 4.0 0.00 0.43 0.00 97 1011.3
20260904071535 69 253 2.0 4.0 0.00 0.43 0.00 98 1011.5
20260904071100 69 194 1.0 3.0 0.00 0.43 0.00 98 1011.5
20260904071004 69 194 2.0 4.0 0.00 0.43 0.00 98 1011.4
20260904070537 69 243 1.0 4.0 0.00 0.43 0.00 97 1011.3
20260904070048 69 229 1.0 4.0 0.00 0.43 0.00 97 1011.4
20260904065520 69 228 2.0 4.0 0.00 0.43 0.00 98 1011.3
20260904065056 69 204 0.0 4.0 0.00 0.43 0.00 97 1011.2
20260904064537 69 235 2.0 4.0 0.00 0.43 0.00 97 1011.1
20260904064011 69 155 1.0 3.0 0.00 0.43 0.00 98 1011.1
20260904063540 69 213 0.0 3.0 0.00 0.43 0.00 97 1011.1
20260904063010 69 236 1.0 4.0 0.00 0.43 0.00 97 1011.0
20260904062550 69 294 2.0 4.0 0.00 0.43 0.00 97 1010.9
20260904062020 69 219 2.0 4.0 0.00 0.43 0.00 97 1010.9
20260904061601 69 213 2.0 4.0 0.00 0.43 0.00 97 1010.8
20260904061025 69 180 2.0 4.0 0.00 0.43 0.00 97 1010.7
20260904060534 69 172 1.0 3.0 0.01 0.43 0.00 97 1010.8
20260904060016 69 119 0.0 0.0 0.01 0.43 0.00 97 1010.8
20260904055551 69 119 0.0 0.0 0.02 0.43 0.00 97 1010.8
20260904055020 69 119 0.0 0.0 0.02 0.43 0.00 97 1010.8
20260904054601 69 119 0.0 0.0 0.03 0.43 0.00 97 1011.0
20260904054034 69 119 0.0 0.0 0.04 0.43 0.00 97 1011.1
20260904053547 69 119 0.0 3.0 0.04 0.43 0.00 97 1011.1
20260904053031 69 119 1.0 3.0 0.05 0.43 0.43 97 1011.3
20260904052554 69 138 0.0 0.0 0.05 0.43 0.43 97 1011.5
20260904052035 69 186 0.0 0.0 0.05 0.43 0.43 97 1011.8
20260904051505 69 254 0.0 0.0 0.06 0.43 0.43 96 1012.0
20260904051039 69 254 0.0 0.0 0.06 0.43 0.43 96 1012.0
20260904050553 69 296 0.0 3.0 0.06 0.42 0.42 96 1012.3
20260904050025 70 306 0.0 3.0 0.06 0.42 0.42 96 1012.3
20260904045559 69 308 0.0 2.0 0.05 0.41 0.41 96 1012.5
20260904045501 69 283 1.0 3.0 0.05 0.41 0.41 96 1012.6
20260904045035 70 50 0.0 3.0 0.05 0.41 0.41 96 1013.0
20260904044512 70 39 1.0 4.0 0.04 0.40 0.40 96 1013.4
20260904044038 70 64 2.0 5.0 0.03 0.39 0.39 95 1013.5
20260904043511 70 316 3.0 6.0 0.03 0.39 0.39 95 1013.2
20260904043045 70 195 2.0 6.0 0.03 0.39 0.39 95 1013.0
20260904042517 70 252 1.0 6.0 0.02 0.38 0.38 95 1013.1
20260904042050 70 236 1.0 4.0 0.02 0.38 0.38 95 1013.7
20260904041520 70 287 1.0 8.0 0.02 0.37 0.37 94 1014.0
20260904041035 70 116 2.0 8.0 0.10 0.36 0.37 94 1014.4
20260904040509 70 31 3.0 8.0 0.32 0.36 0.36 94 1014.7
20260904040041 70 300 3.0 7.0 0.35 0.36 0.36 94 1014.4
20260904035509 70 69 1.0 9.0 0.35 0.36 0.36 93 1013.8
20260904035025 70 48 4.0 8.0 0.35 0.36 0.36 94 1014.2